,,,PA_Meas_PMT16A,,PR_Meas_QMR101_102,,RH_Meas_QMH101,,SR_Meas_QMS101,,TA_Meas_QMH101,,GenWind,,GenWind,
date,time,status,PA,status,PR,status,RH,status,SR,status,TA,status,DirAvg,status,SpdAvg,
2010-07-30, 00:00:04,VALID,1005.15,VALID,0,VALID,104,VALID,0,VALID,23.5868,VALID,360,VALID,0.0835937,
2010-07-30, 00:01:04,VALID,1005.17,VALID,0,VALID,104,VALID,0,VALID,23.5868,VALID,360,VALID,0,
2010-07-30, 00:02:04,VALID,1005.18,VALID,0,VALID,104,VALID,0,VALID,23.546,VALID,360,VALID,0,
2010-07-30, 00:03:04,VALID,1005.16,VALID,0,VALID,104,VALID,0.100563,VALID,23.4877,VALID,360,VALID,0,
2010-07-30, 00:04:04,VALID,1005.17,VALID,0,VALID,104,VALID,0,VALID,23.4877,VALID,360,VALID,0.0105469,
2010-07-30, 00:05:04,VALID,1005.16,VALID,0,VALID,104,VALID,0,VALID,23.4487,VALID,360,VALID,0,
2010-07-30, 00:06:04,VALID,1005.16,VALID,0,VALID,104,VALID,0,VALID,23.447,VALID,360,VALID,0,
2010-07-30, 00:07:04,VALID,1005.13,VALID,0,VALID,104,VALID,0,VALID,23.447,VALID,360,VALID,0.161328,
2010-07-30, 00:08:04,VALID,1005.11,VALID,0,VALID,104,VALID,0.100563,VALID,23.4487,VALID,360,VALID,0.413281,
2010-07-30, 00:09:04,VALID,1005.11,VALID,0,VALID,104,VALID,0,VALID,23.3886,VALID,360,VALID,0.332422,
2010-07-30, 00:10:04,VALID,1005.07,VALID,0,VALID,104,VALID,0,VALID,23.3904,VALID,360,VALID,0.191016,
2010-07-30, 00:11:04,VALID,1005.08,VALID,0,VALID,104,VALID,0,VALID,23.332,VALID,360,VALID,0.146875,
2010-07-30, 00:12:04,VALID,1005.14,VALID,0,VALID,104,VALID,0.100563,VALID,23.2931,VALID,360,VALID,0.216797,
2010-07-30, 00:13:04,VALID,1005.1,VALID,0,VALID,104,VALID,0,VALID,23.2931,VALID,360,VALID,0.203516,
2010-07-30, 00:14:04,VALID,1005.08,VALID,0,VALID,104,VALID,0,VALID,23.3125,VALID,360,VALID,0.0265625,
2010-07-30, 00:15:04,VALID,1005.06,VALID,0,VALID,104,VALID,0,VALID,23.332,VALID,360,VALID,0,
2010-07-30, 00:16:04,VALID,1005.06,VALID,0,VALID,104,VALID,0.100563,VALID,23.3514,VALID,360,VALID,0,
2010-07-30, 00:17:04,VALID,1005.06,VALID,0,VALID,104,VALID,0,VALID,23.3514,VALID,360,VALID,0,
2010-07-30, 00:18:04,VALID,1005.07,VALID,0,VALID,104,VALID,0.100563,VALID,23.332,VALID,360,VALID,0,
2010-07-30, 00:19:04,VALID,1005.08,VALID,0,VALID,104,VALID,0,VALID,23.332,VALID,360,VALID,0,
2010-07-30, 00:20:04,VALID,1005.06,VALID,0,VALID,104,VALID,0.100563,VALID,23.3691,VALID,360,VALID,0,
2010-07-30, 00:21:04,VALID,1005.04,VALID,0,VALID,104,VALID,0,VALID,23.3904,VALID,360,VALID,0,
2010-07-30, 00:22:04,VALID,1005.02,VALID,0,VALID,104,VALID,0,VALID,23.3904,VALID,360,VALID,0,
2010-07-30, 00:23:04,VALID,1005.01,VALID,0,VALID,104,VALID,0,VALID,23.3709,VALID,360,VALID,0,
2010-07-30, 00:24:04,VALID,1005,VALID,0,VALID,104,VALID,0,VALID,23.3709,VALID,360,VALID,0,
2010-07-30, 00:25:04,VALID,1004.98,VALID,0,VALID,104,VALID,0.100563,VALID,23.3107,VALID,360,VALID,0.268359,
2010-07-30, 00:26:04,VALID,1004.95,VALID,0,VALID,104,VALID,0,VALID,23.3125,VALID,360,VALID,0.280078,
2010-07-30, 00:27:04,VALID,1004.94,VALID,0,VALID,104,VALID,0.100563,VALID,23.3125,VALID,360,VALID,0.367188,
2010-07-30, 00:28:04,VALID,1004.92,VALID,0,VALID,104,VALID,0.100563,VALID,23.3337,VALID,360,VALID,0.269141,
2010-07-30, 00:29:04,VALID,1004.94,VALID,0,VALID,104,VALID,0,VALID,23.2718,VALID,360,VALID,0.436719,
2010-07-30, 00:30:04,VALID,1004.85,VALID,0,VALID,104,VALID,0.100563,VALID,23.2718,VALID,360,VALID,0.510938,
2010-07-30, 00:31:04,VALID,1004.85,VALID,0,VALID,104,VALID,0.100563,VALID,23.2718,VALID,360,VALID,0.431641,
2010-07-30, 00:32:04,VALID,1004.86,VALID,0,VALID,104,VALID,0,VALID,23.2736,VALID,360,VALID,0.414844,
2010-07-30, 00:33:04,VALID,1004.85,VALID,0,VALID,104,VALID,0,VALID,23.2931,VALID,13,VALID,0.391406,
2010-07-30, 00:34:04,VALID,1004.86,VALID,0,VALID,104,VALID,0,VALID,23.3125,VALID,13,VALID,0.221484,
2010-07-30, 00:35:04,VALID,1004.85,VALID,0,VALID,104,VALID,0,VALID,23.3514,VALID,13,VALID,0.278125,
2010-07-30, 00:36:04,VALID,1004.84,VALID,0,VALID,104,VALID,0,VALID,23.3709,VALID,13,VALID,0.336719,
2010-07-30, 00:37:04,VALID,1004.82,VALID,0,VALID,104,VALID,0,VALID,23.3709,VALID,13,VALID,0.399609,
2010-07-30, 00:38:04,VALID,1004.85,VALID,0,VALID,104,VALID,0,VALID,23.332,VALID,12,VALID,0.45625,
2010-07-30, 00:39:04,VALID,1004.86,VALID,0,VALID,104,VALID,0,VALID,23.3532,VALID,12,VALID,0.242578,
2010-07-30, 00:40:04,VALID,1004.88,VALID,0,VALID,104,VALID,0,VALID,23.332,VALID,12,VALID,0.263672,
2010-07-30, 00:41:04,VALID,1004.84,VALID,0,VALID,104,VALID,0,VALID,23.3514,VALID,12,VALID,0.313281,
2010-07-30, 00:42:04,VALID,1004.84,VALID,0,VALID,104,VALID,0,VALID,23.3514,VALID,12,VALID,0.26875,
2010-07-30, 00:43:04,VALID,1004.85,VALID,0,VALID,104,VALID,0.100563,VALID,23.3709,VALID,12,VALID,0.360938,
2010-07-30, 00:44:04,VALID,1004.82,VALID,0,VALID,104,VALID,0.100563,VALID,23.3709,VALID,12,VALID,0.279297,
2010-07-30, 00:45:04,VALID,1004.79,VALID,0,VALID,104,VALID,0,VALID,23.4311,VALID,12,VALID,0.205469,
2010-07-30, 00:46:04,VALID,1004.76,VALID,0,VALID,104,VALID,0,VALID,23.4098,VALID,12,VALID,0.169922,
2010-07-30, 00:47:04,VALID,1004.76,VALID,0,VALID,104,VALID,0,VALID,23.3497,VALID,12,VALID,0.0855469,
2010-07-30, 00:48:04,VALID,1004.74,VALID,0,VALID,104,VALID,0,VALID,23.3709,VALID,12,VALID,0,
2010-07-30, 00:49:04,VALID,1004.73,VALID,0,VALID,104,VALID,0,VALID,23.3709,VALID,13,VALID,0,
2010-07-30, 00:50:04,VALID,1004.74,VALID,0,VALID,104,VALID,0,VALID,23.3514,VALID,13,VALID,0.00429688,
2010-07-30, 00:51:04,VALID,1004.74,VALID,0,VALID,104,VALID,0,VALID,23.3125,VALID,12,VALID,0.00507812,
2010-07-30, 00:52:04,VALID,1004.74,VALID,0,VALID,104,VALID,0,VALID,23.2736,VALID,13,VALID,0.375391,
2010-07-30, 00:53:04,VALID,1004.75,VALID,0,VALID,104,VALID,0,VALID,23.2329,VALID,13,VALID,0.524609,
2010-07-30, 00:54:04,VALID,1004.71,VALID,0,VALID,104,VALID,0,VALID,23.2134,VALID,12,VALID,0.501172,
2010-07-30, 00:55:04,VALID,1004.69,VALID,0,VALID,104,VALID,0,VALID,23.2347,VALID,10,VALID,0.66875,
2010-07-30, 00:56:04,VALID,1004.65,VALID,0,VALID,104,VALID,0,VALID,23.2347,VALID,8,VALID,0.718359,
2010-07-30, 00:57:04,VALID,1004.64,VALID,0,VALID,104,VALID,0,VALID,23.2152,VALID,6,VALID,0.712891,
2010-07-30, 00:58:04,VALID,1004.64,VALID,0,VALID,104,VALID,0,VALID,23.194,VALID,6,VALID,0.5625,
2010-07-30, 00:59:04,VALID,1004.63,VALID,0,VALID,104,VALID,0,VALID,23.1957,VALID,6,VALID,0.471094,
2010-07-30, 01:00:04,VALID,1004.67,VALID,0,VALID,104,VALID,0,VALID,23.2152,VALID,5,VALID,0.412891,
2010-07-30, 01:01:04,VALID,1004.62,VALID,0,VALID,104,VALID,0,VALID,23.1957,VALID,5,VALID,0.0996094,
2010-07-30, 01:02:04,VALID,1004.59,VALID,0,VALID,104,VALID,0.100563,VALID,23.2152,VALID,5,VALID,0,
2010-07-30, 01:03:04,VALID,1004.55,VALID,0,VALID,104,VALID,0,VALID,23.217,VALID,5,VALID,0,
2010-07-30, 01:04:04,VALID,1004.53,VALID,0,VALID,104,VALID,0,VALID,23.2347,VALID,5,VALID,0,
2010-07-30, 01:05:04,VALID,1004.53,VALID,0,VALID,104,VALID,0,VALID,23.2134,VALID,5,VALID,0.367188,
2010-07-30, 01:06:04,VALID,1004.48,VALID,0,VALID,104,VALID,0,VALID,23.2347,VALID,5,VALID,0.182031,
2010-07-30, 01:07:04,VALID,1004.51,VALID,0,VALID,104,VALID,0,VALID,23.2541,VALID,5,VALID,0.0515625,
2010-07-30, 01:08:04,VALID,1004.51,VALID,0,VALID,104,VALID,0,VALID,23.2541,VALID,5,VALID,0,
2010-07-30, 01:09:04,VALID,1004.49,VALID,0,VALID,104,VALID,0,VALID,23.2541,VALID,5,VALID,0,
2010-07-30, 01:10:04,VALID,1004.46,VALID,0,VALID,104,VALID,0,VALID,23.2541,VALID,5,VALID,0.217969,
2010-07-30, 01:11:04,VALID,1004.47,VALID,0,VALID,104,VALID,0.100563,VALID,23.2736,VALID,5,VALID,0.250781,
2010-07-30, 01:12:04,VALID,1004.47,VALID,0,VALID,104,VALID,0,VALID,23.2541,VALID,5,VALID,0.373828,
2010-07-30, 01:13:04,VALID,1004.48,VALID,0,VALID,104,VALID,0,VALID,23.2134,VALID,5,VALID,0,
2010-07-30, 01:14:04,VALID,1004.43,VALID,0,VALID,104,VALID,0,VALID,23.2134,VALID,5,VALID,0,
2010-07-30, 01:15:04,VALID,1004.44,VALID,0,VALID,104,VALID,0,VALID,23.2152,VALID,5,VALID,0,
2010-07-30, 01:16:04,VALID,1004.46,VALID,0,VALID,104,VALID,0,VALID,23.1745,VALID,5,VALID,0,
2010-07-30, 01:17:04,VALID,1004.48,VALID,0,VALID,104,VALID,0.100563,VALID,23.1763,VALID,5,VALID,0,
2010-07-30, 01:18:04,VALID,1004.45,VALID,0,VALID,104,VALID,0,VALID,23.1763,VALID,5,VALID,0,
2010-07-30, 01:19:04,VALID,1004.46,VALID,0,VALID,104,VALID,0,VALID,23.1763,VALID,5,VALID,0,
2010-07-30, 01:20:04,VALID,1004.44,VALID,0,VALID,104,VALID,0,VALID,23.1763,VALID,5,VALID,0,
2010-07-30, 01:21:04,VALID,1004.46,VALID,0,VALID,104,VALID,0,VALID,23.1745,VALID,5,VALID,0,
2010-07-30, 01:22:04,VALID,1004.47,VALID,0,VALID,104,VALID,0,VALID,23.2152,VALID,5,VALID,0,
2010-07-30, 01:23:04,VALID,1004.47,VALID,0,VALID,104,VALID,0,VALID,23.194,VALID,5,VALID,0,
2010-07-30, 01:24:04,VALID,1004.47,VALID,0,VALID,104,VALID,0.100563,VALID,23.1957,VALID,5,VALID,0,
2010-07-30, 01:25:04,VALID,1004.45,VALID,0,VALID,104,VALID,0,VALID,23.1533,VALID,5,VALID,0,
2010-07-30, 01:26:04,VALID,1004.44,VALID,0,VALID,104,VALID,0,VALID,23.1763,VALID,5,VALID,0,
2010-07-30, 01:27:04,VALID,1004.4,VALID,0,VALID,104,VALID,0.100563,VALID,23.1957,VALID,5,VALID,0,
2010-07-30, 01:28:04,VALID,1004.42,VALID,0,VALID,104,VALID,0.100563,VALID,23.1568,VALID,5,VALID,0,
2010-07-30, 01:29:04,VALID,1004.45,VALID,0,VALID,104,VALID,0,VALID,23.1356,VALID,5,VALID,0,
2010-07-30, 01:30:04,VALID,1004.44,VALID,0,VALID,104,VALID,0.100563,VALID,23.0967,VALID,5,VALID,0.525,
2010-07-30, 01:31:04,VALID,1004.47,VALID,0,VALID,104,VALID,0,VALID,23.1197,VALID,5,VALID,0.594531,
2010-07-30, 01:32:04,VALID,1004.47,VALID,0,VALID,104,VALID,0,VALID,23.1002,VALID,5,VALID,0.624609,
2010-07-30, 01:33:04,VALID,1004.5,VALID,0,VALID,104,VALID,0,VALID,23.079,VALID,5,VALID,0.610547,
2010-07-30, 01:34:04,VALID,1004.48,VALID,0,VALID,104,VALID,0,VALID,23.079,VALID,5,VALID,0.521875,
2010-07-30, 01:35:04,VALID,1004.49,VALID,0,VALID,104,VALID,0,VALID,23.0807,VALID,5,VALID,0.501953,
2010-07-30, 01:36:04,VALID,1004.48,VALID,0,VALID,104,VALID,0,VALID,23.1002,VALID,5,VALID,0.344141,
2010-07-30, 01:37:04,VALID,1004.48,VALID,0,VALID,104,VALID,0,VALID,23.1002,VALID,5,VALID,0.350781,
2010-07-30, 01:38:04,VALID,1004.48,VALID,0,VALID,104,VALID,0,VALID,23.0807,VALID,5,VALID,0.273438,
2010-07-30, 01:39:04,VALID,1004.45,VALID,0,VALID,104,VALID,0,VALID,23.079,VALID,5,VALID,0.392188,
2010-07-30, 01:40:04,VALID,1004.45,VALID,0,VALID,104,VALID,0,VALID,23.1197,VALID,5,VALID,0.464844,
2010-07-30, 01:41:04,VALID,1004.46,VALID,0,VALID,104,VALID,0,VALID,23.1391,VALID,5,VALID,0.487109,
2010-07-30, 01:42:04,VALID,1004.45,VALID,0,VALID,104,VALID,0,VALID,23.1391,VALID,5,VALID,0.33125,
2010-07-30, 01:43:04,VALID,1004.43,VALID,0,VALID,104,VALID,0,VALID,23.1179,VALID,5,VALID,0.28125,
2010-07-30, 01:44:04,VALID,1004.42,VALID,0,VALID,104,VALID,0,VALID,23.1374,VALID,5,VALID,0.251172,
2010-07-30, 01:45:04,VALID,1004.42,VALID,0,VALID,104,VALID,0,VALID,23.1586,VALID,5,VALID,0.311719,
2010-07-30, 01:46:04,VALID,1004.44,VALID,0,VALID,104,VALID,0.100563,VALID,23.1356,VALID,5,VALID,0,
2010-07-30, 01:47:04,VALID,1004.43,VALID,0,VALID,104,VALID,0,VALID,23.1374,VALID,5,VALID,0,
2010-07-30, 01:48:04,VALID,1004.4,VALID,0,VALID,104,VALID,0,VALID,23.1586,VALID,5,VALID,0,
2010-07-30, 01:49:04,VALID,1004.37,VALID,0,VALID,104,VALID,0.100563,VALID,23.1162,VALID,5,VALID,0.0570313,
2010-07-30, 01:50:04,VALID,1004.38,VALID,0,VALID,104,VALID,0,VALID,23.1568,VALID,5,VALID,0.372656,
2010-07-30, 01:51:04,VALID,1004.36,VALID,0,VALID,104,VALID,0.100563,VALID,23.1551,VALID,5,VALID,0.259375,
2010-07-30, 01:52:04,VALID,1004.37,VALID,0,VALID,104,VALID,0.100563,VALID,23.1957,VALID,5,VALID,0.320313,
2010-07-30, 01:53:04,VALID,1004.39,VALID,0,VALID,104,VALID,0,VALID,23.1568,VALID,5,VALID,0.480469,
2010-07-30, 01:54:04,VALID,1004.4,VALID,0,VALID,104,VALID,0.100563,VALID,23.1356,VALID,5,VALID,0.392188,
2010-07-30, 01:55:04,VALID,1004.38,VALID,0,VALID,104,VALID,0.100563,VALID,23.178,VALID,5,VALID,0.388672,
2010-07-30, 01:56:04,VALID,1004.39,VALID,0,VALID,104,VALID,0,VALID,23.1568,VALID,5,VALID,0.325,
2010-07-30, 01:57:04,VALID,1004.35,VALID,0,VALID,104,VALID,0.100563,VALID,23.1374,VALID,5,VALID,0.484375,
2010-07-30, 01:58:04,VALID,1004.35,VALID,0,VALID,104,VALID,0.100563,VALID,23.1586,VALID,5,VALID,0.351563,
2010-07-30, 01:59:04,VALID,1004.38,VALID,0,VALID,104,VALID,0,VALID,23.1179,VALID,5,VALID,0.347656,
2010-07-30, 02:00:04,VALID,1004.37,VALID,0,VALID,104,VALID,0,VALID,23.1391,VALID,5,VALID,0.227344,
2010-07-30, 02:01:04,VALID,1004.38,VALID,0,VALID,104,VALID,0,VALID,23.1391,VALID,5,VALID,0,
2010-07-30, 02:02:04,VALID,1004.34,VALID,0,VALID,104,VALID,0,VALID,23.1586,VALID,5,VALID,0,
2010-07-30, 02:03:04,VALID,1004.38,VALID,0,VALID,104,VALID,0,VALID,23.1763,VALID,5,VALID,0,
2010-07-30, 02:04:04,VALID,1004.36,VALID,0,VALID,104,VALID,0,VALID,23.1975,VALID,5,VALID,0,
2010-07-30, 02:05:04,VALID,1004.34,VALID,0,VALID,104,VALID,0,VALID,23.1975,VALID,5,VALID,0,
2010-07-30, 02:06:04,VALID,1004.27,VALID,0,VALID,104,VALID,0,VALID,23.1957,VALID,5,VALID,0,
2010-07-30, 02:07:04,VALID,1004.3,VALID,0,VALID,104,VALID,0,VALID,23.2152,VALID,5,VALID,0,
2010-07-30, 02:08:04,VALID,1004.31,VALID,0,VALID,104,VALID,0,VALID,23.1957,VALID,5,VALID,0,
2010-07-30, 02:09:04,VALID,1004.31,VALID,0,VALID,104,VALID,0,VALID,23.2347,VALID,5,VALID,0,
2010-07-30, 02:10:04,VALID,1004.33,VALID,0,VALID,104,VALID,0,VALID,23.217,VALID,5,VALID,0,
2010-07-30, 02:11:04,VALID,1004.31,VALID,0,VALID,104,VALID,0,VALID,23.1586,VALID,5,VALID,0,
2010-07-30, 02:12:04,VALID,1004.29,VALID,0,VALID,104,VALID,0,VALID,23.1391,VALID,5,VALID,0.355078,
2010-07-30, 02:13:04,VALID,1004.29,VALID,0,VALID,104,VALID,0,VALID,23.1391,VALID,5,VALID,0.382813,
2010-07-30, 02:14:04,VALID,1004.3,VALID,0,VALID,104,VALID,0,VALID,23.1197,VALID,5,VALID,0.331641,
2010-07-30, 02:15:04,VALID,1004.29,VALID,0,VALID,104,VALID,0,VALID,23.1197,VALID,5,VALID,0.310156,
2010-07-30, 02:16:04,VALID,1004.28,VALID,0,VALID,104,VALID,0,VALID,23.1179,VALID,5,VALID,0.232422,
2010-07-30, 02:17:04,VALID,1004.28,VALID,0,VALID,104,VALID,0,VALID,23.1586,VALID,5,VALID,0.176563,
2010-07-30, 02:18:04,VALID,1004.24,VALID,0,VALID,104,VALID,0,VALID,23.1586,VALID,5,VALID,0.170312,
2010-07-30, 02:19:04,VALID,1004.22,VALID,0,VALID,104,VALID,0,VALID,23.1374,VALID,5,VALID,0.220703,
2010-07-30, 02:20:04,VALID,1004.19,VALID,0,VALID,104,VALID,0,VALID,23.1002,VALID,5,VALID,0,
2010-07-30, 02:21:04,VALID,1004.18,VALID,0,VALID,104,VALID,0,VALID,23.0206,VALID,5,VALID,0,
2010-07-30, 02:22:04,VALID,1004.16,VALID,0,VALID,104,VALID,0,VALID,23.0418,VALID,5,VALID,0,
2010-07-30, 02:23:04,VALID,1004.16,VALID,0,VALID,104,VALID,0,VALID,23.0206,VALID,5,VALID,0,
2010-07-30, 02:24:04,VALID,1004.17,VALID,0,VALID,104,VALID,0,VALID,23.0613,VALID,5,VALID,0,
2010-07-30, 02:25:04,VALID,1004.16,VALID,0,VALID,104,VALID,0,VALID,23.0825,VALID,5,VALID,0,
2010-07-30, 02:26:04,VALID,1004.1,VALID,0,VALID,104,VALID,0,VALID,23.0807,VALID,5,VALID,0,
2010-07-30, 02:27:04,VALID,1004.09,VALID,0,VALID,104,VALID,0,VALID,23.0807,VALID,5,VALID,0,
2010-07-30, 02:28:04,VALID,1004.05,VALID,0,VALID,104,VALID,0,VALID,23.0807,VALID,5,VALID,0,
2010-07-30, 02:29:04,VALID,1004.05,VALID,0,VALID,104,VALID,0,VALID,23.0401,VALID,5,VALID,0,
2010-07-30, 02:30:04,VALID,1004.07,VALID,0,VALID,104,VALID,0,VALID,23.0401,VALID,5,VALID,0,
2010-07-30, 02:31:04,VALID,1004.06,VALID,0,VALID,104,VALID,0.100563,VALID,23.0984,VALID,5,VALID,0,
2010-07-30, 02:32:04,VALID,1004.05,VALID,0,VALID,104,VALID,0,VALID,23.1374,VALID,5,VALID,0,
2010-07-30, 02:33:04,VALID,1004.03,VALID,0,VALID,104,VALID,0,VALID,23.1568,VALID,5,VALID,0,
2010-07-30, 02:34:04,VALID,1003.98,VALID,0,VALID,104,VALID,0,VALID,23.0967,VALID,4,VALID,0,
2010-07-30, 02:35:04,VALID,1003.95,VALID,0,VALID,104,VALID,0.100563,VALID,23.079,VALID,4,VALID,0,
2010-07-30, 02:36:04,VALID,1003.93,VALID,0,VALID,104,VALID,0,VALID,23.0401,VALID,4,VALID,0,
2010-07-30, 02:37:04,VALID,1003.92,VALID,0,VALID,104,VALID,0.100563,VALID,23.0012,VALID,4,VALID,0,
2010-07-30, 02:38:04,VALID,1003.89,VALID,0,VALID,104,VALID,0,VALID,22.9605,VALID,4,VALID,0,
2010-07-30, 02:39:04,VALID,1003.89,VALID,0,VALID,104,VALID,0,VALID,22.9622,VALID,4,VALID,0,
2010-07-30, 02:40:04,VALID,1003.87,VALID,0,VALID,104,VALID,0,VALID,22.9622,VALID,4,VALID,0,
2010-07-30, 02:41:04,VALID,1003.85,VALID,0,VALID,104,VALID,0,VALID,22.9428,VALID,4,VALID,0,
2010-07-30, 02:42:04,VALID,1003.82,VALID,0,VALID,104,VALID,0,VALID,22.9216,VALID,4,VALID,0,
2010-07-30, 02:43:04,VALID,1003.81,VALID,0,VALID,104,VALID,0,VALID,22.9428,VALID,4,VALID,0,
2010-07-30, 02:44:04,VALID,1003.79,VALID,0,VALID,104,VALID,0,VALID,22.9622,VALID,4,VALID,0,
2010-07-30, 02:45:04,VALID,1003.8,VALID,0,VALID,104,VALID,0,VALID,22.9817,VALID,4,VALID,0,
2010-07-30, 02:46:04,VALID,1003.8,VALID,0,VALID,104,VALID,0,VALID,23.0012,VALID,4,VALID,0,
2010-07-30, 02:47:04,VALID,1003.79,VALID,0,VALID,104,VALID,0,VALID,22.9817,VALID,4,VALID,0,
2010-07-30, 02:48:04,VALID,1003.82,VALID,0,VALID,104,VALID,0.100563,VALID,22.9622,VALID,4,VALID,0,
2010-07-30, 02:49:04,VALID,1003.81,VALID,0,VALID,104,VALID,0,VALID,22.9817,VALID,4,VALID,0,
2010-07-30, 02:50:04,VALID,1003.8,VALID,0,VALID,104,VALID,0,VALID,23.0012,VALID,4,VALID,0,
2010-07-30, 02:51:04,VALID,1003.82,VALID,0,VALID,104,VALID,0.100563,VALID,23.0206,VALID,4,VALID,0,
2010-07-30, 02:52:04,VALID,1003.82,VALID,0,VALID,104,VALID,0,VALID,23.0206,VALID,4,VALID,0,
2010-07-30, 02:53:04,VALID,1003.82,VALID,0,VALID,104,VALID,0,VALID,23.0807,VALID,4,VALID,0,
2010-07-30, 02:54:04,VALID,1003.84,VALID,0,VALID,104,VALID,0,VALID,23.0984,VALID,4,VALID,0,
2010-07-30, 02:55:04,VALID,1003.86,VALID,0,VALID,104,VALID,0,VALID,23.1179,VALID,4,VALID,0,
2010-07-30, 02:56:04,VALID,1003.81,VALID,0,VALID,104,VALID,0,VALID,23.0984,VALID,4,VALID,0,
2010-07-30, 02:57:04,VALID,1003.8,VALID,0,VALID,104,VALID,0,VALID,23.079,VALID,4,VALID,0,
2010-07-30, 02:58:04,VALID,1003.81,VALID,0,VALID,104,VALID,0,VALID,23.0401,VALID,4,VALID,0,
2010-07-30, 02:59:04,VALID,1003.8,VALID,0,VALID,104,VALID,0,VALID,23.0206,VALID,4,VALID,0,
2010-07-30, 03:00:04,VALID,1003.78,VALID,0,VALID,104,VALID,0,VALID,23.0224,VALID,4,VALID,0,
2010-07-30, 03:01:04,VALID,1003.79,VALID,0,VALID,104,VALID,0,VALID,23.0206,VALID,4,VALID,0,
2010-07-30, 03:02:04,VALID,1003.8,VALID,0,VALID,104,VALID,0,VALID,23.0807,VALID,4,VALID,0,
2010-07-30, 03:03:04,VALID,1003.84,VALID,0,VALID,104,VALID,0,VALID,23.1179,VALID,4,VALID,0,
2010-07-30, 03:04:04,VALID,1003.84,VALID,0,VALID,104,VALID,0,VALID,23.1391,VALID,4,VALID,0,
2010-07-30, 03:05:04,VALID,1003.82,VALID,0,VALID,104,VALID,0,VALID,23.1586,VALID,4,VALID,0,
2010-07-30, 03:06:04,VALID,1003.79,VALID,0,VALID,104,VALID,0,VALID,23.178,VALID,4,VALID,0,
2010-07-30, 03:07:04,VALID,1003.79,VALID,0,VALID,104,VALID,0,VALID,23.1975,VALID,4,VALID,0,
2010-07-30, 03:08:04,VALID,1003.78,VALID,0,VALID,104,VALID,0,VALID,23.1586,VALID,4,VALID,0,
2010-07-30, 03:09:04,VALID,1003.77,VALID,0,VALID,104,VALID,0,VALID,23.1179,VALID,4,VALID,0,
2010-07-30, 03:10:04,VALID,1003.76,VALID,0,VALID,104,VALID,0,VALID,23.1002,VALID,4,VALID,0,
2010-07-30, 03:11:04,VALID,1003.8,VALID,0,VALID,104,VALID,0,VALID,23.0613,VALID,4,VALID,0,
2010-07-30, 03:12:04,VALID,1003.79,VALID,0,VALID,104,VALID,0,VALID,23.0418,VALID,4,VALID,0,
2010-07-30, 03:13:04,VALID,1003.76,VALID,0,VALID,104,VALID,0,VALID,23.0012,VALID,4,VALID,0,
2010-07-30, 03:14:04,VALID,1003.79,VALID,0,VALID,104,VALID,0,VALID,23.0418,VALID,4,VALID,0,
2010-07-30, 03:15:04,VALID,1003.77,VALID,0,VALID,104,VALID,0,VALID,23.0984,VALID,4,VALID,0,
2010-07-30, 03:16:04,VALID,1003.83,VALID,0,VALID,104,VALID,0,VALID,23.1179,VALID,4,VALID,0,
2010-07-30, 03:17:04,VALID,1003.85,VALID,0,VALID,104,VALID,0.100563,VALID,23.0984,VALID,4,VALID,0,
2010-07-30, 03:18:04,VALID,1003.9,VALID,0,VALID,104,VALID,0,VALID,23.0401,VALID,4,VALID,0,
2010-07-30, 03:19:04,VALID,1003.9,VALID,0,VALID,104,VALID,0,VALID,22.9817,VALID,4,VALID,0,
2010-07-30, 03:20:04,VALID,1003.89,VALID,0,VALID,104,VALID,0.100563,VALID,22.9817,VALID,4,VALID,0,
2010-07-30, 03:21:04,VALID,1003.88,VALID,0,VALID,104,VALID,0,VALID,22.9622,VALID,4,VALID,0,
2010-07-30, 03:22:04,VALID,1003.85,VALID,0,VALID,104,VALID,0,VALID,22.9817,VALID,4,VALID,0,
2010-07-30, 03:23:04,VALID,1003.86,VALID,0,VALID,104,VALID,0,VALID,22.9622,VALID,4,VALID,0,
2010-07-30, 03:24:04,VALID,1003.86,VALID,0,VALID,104,VALID,0,VALID,22.9428,VALID,4,VALID,0,
2010-07-30, 03:25:04,VALID,1003.85,VALID,0,VALID,104,VALID,0,VALID,22.9428,VALID,4,VALID,0,
2010-07-30, 03:26:04,VALID,1003.85,VALID,0,VALID,104,VALID,0,VALID,22.9021,VALID,4,VALID,0,
2010-07-30, 03:27:04,VALID,1003.88,VALID,0,VALID,104,VALID,0,VALID,22.9039,VALID,4,VALID,0,
2010-07-30, 03:28:04,VALID,1003.89,VALID,0,VALID,104,VALID,0.100563,VALID,22.9039,VALID,4,VALID,0,
2010-07-30, 03:29:04,VALID,1003.86,VALID,0,VALID,104,VALID,0.100563,VALID,22.9039,VALID,4,VALID,0,
2010-07-30, 03:30:04,VALID,1003.86,VALID,0,VALID,104,VALID,0,VALID,22.9233,VALID,4,VALID,0,
2010-07-30, 03:31:04,VALID,1003.85,VALID,0,VALID,104,VALID,0,VALID,22.9445,VALID,359,VALID,0,
2010-07-30, 03:32:04,VALID,1003.84,VALID,0,VALID,104,VALID,0,VALID,22.9445,VALID,356,VALID,0,
2010-07-30, 03:33:04,VALID,1003.85,VALID,0,VALID,104,VALID,0,VALID,22.9251,VALID,356,VALID,0,
2010-07-30, 03:34:04,VALID,1003.87,VALID,0,VALID,104,VALID,0,VALID,22.8844,VALID,356,VALID,0,
2010-07-30, 03:35:04,VALID,1003.9,VALID,0,VALID,104,VALID,0,VALID,22.8861,VALID,356,VALID,0,
2010-07-30, 03:36:04,VALID,1003.92,VALID,0,VALID,104,VALID,0,VALID,22.8861,VALID,356,VALID,0,
2010-07-30, 03:37:04,VALID,1003.9,VALID,0,VALID,104,VALID,0,VALID,22.9251,VALID,356,VALID,0,
2010-07-30, 03:38:04,VALID,1003.85,VALID,0,VALID,104,VALID,0,VALID,22.9021,VALID,356,VALID,0,
2010-07-30, 03:39:04,VALID,1003.79,VALID,0,VALID,104,VALID,0,VALID,22.964,VALID,356,VALID,0,
2010-07-30, 03:40:04,VALID,1003.84,VALID,0,VALID,104,VALID,0,VALID,22.9622,VALID,356,VALID,0,
2010-07-30, 03:41:04,VALID,1003.84,VALID,0,VALID,104,VALID,0,VALID,22.964,VALID,356,VALID,0,
2010-07-30, 03:42:04,VALID,1003.85,VALID,0,VALID,104,VALID,0,VALID,22.964,VALID,356,VALID,0,
2010-07-30, 03:43:04,VALID,1003.87,VALID,0,VALID,104,VALID,0,VALID,22.9445,VALID,356,VALID,0,
2010-07-30, 03:44:04,VALID,1003.86,VALID,0,VALID,104,VALID,0,VALID,22.9251,VALID,356,VALID,0,
2010-07-30, 03:45:04,VALID,1003.85,VALID,0,VALID,104,VALID,0,VALID,22.9039,VALID,356,VALID,0,
2010-07-30, 03:46:04,VALID,1003.83,VALID,0,VALID,104,VALID,0,VALID,22.941,VALID,356,VALID,0,
2010-07-30, 03:47:04,VALID,1003.82,VALID,0,VALID,104,VALID,0,VALID,22.9622,VALID,356,VALID,0,
2010-07-30, 03:48:04,VALID,1003.82,VALID,0,VALID,104,VALID,0,VALID,22.9622,VALID,356,VALID,0,
2010-07-30, 03:49:04,VALID,1003.84,VALID,0,VALID,104,VALID,0,VALID,22.9233,VALID,356,VALID,0,
2010-07-30, 03:50:04,VALID,1003.81,VALID,0,VALID,104,VALID,0,VALID,22.964,VALID,356,VALID,0,
2010-07-30, 03:51:04,VALID,1003.79,VALID,0,VALID,104,VALID,0,VALID,22.9622,VALID,356,VALID,0,
2010-07-30, 03:52:04,VALID,1003.81,VALID,0,VALID,104,VALID,0.100563,VALID,23.0206,VALID,356,VALID,0,
2010-07-30, 03:53:04,VALID,1003.86,VALID,0,VALID,104,VALID,0.100563,VALID,23.0401,VALID,356,VALID,0,
2010-07-30, 03:54:04,VALID,1003.89,VALID,0,VALID,104,VALID,0.100563,VALID,22.9994,VALID,356,VALID,0,
2010-07-30, 03:55:04,VALID,1003.91,VALID,0,VALID,104,VALID,0,VALID,22.9817,VALID,356,VALID,0,
2010-07-30, 03:56:04,VALID,1003.89,VALID,0,VALID,104,VALID,0.100563,VALID,22.9622,VALID,356,VALID,0,
2010-07-30, 03:57:04,VALID,1003.9,VALID,0,VALID,104,VALID,0,VALID,22.9216,VALID,356,VALID,0,
2010-07-30, 03:58:04,VALID,1003.88,VALID,0,VALID,104,VALID,0.100563,VALID,22.9198,VALID,356,VALID,0,
2010-07-30, 03:59:04,VALID,1003.89,VALID,0,VALID,104,VALID,0.100563,VALID,22.9817,VALID,356,VALID,0,
2010-07-30, 04:00:04,VALID,1003.91,VALID,0,VALID,104,VALID,0,VALID,23.0012,VALID,356,VALID,0,
2010-07-30, 04:01:04,VALID,1003.87,VALID,0,VALID,104,VALID,0,VALID,22.9852,VALID,356,VALID,0,
2010-07-30, 04:02:04,VALID,1003.89,VALID,0,VALID,104,VALID,0,VALID,22.9251,VALID,357,VALID,0,
2010-07-30, 04:03:04,VALID,1003.89,VALID,0,VALID,104,VALID,0,VALID,22.9834,VALID,356,VALID,0,
2010-07-30, 04:04:04,VALID,1003.87,VALID,0,VALID,104,VALID,0,VALID,22.9834,VALID,356,VALID,0,